{"data":{"norad_id":66840,"intl_designator":"2025-280V","name":"STARLINK-35837","alt_names":[],"object_type":"PAYLOAD","status":"ACTIVE","operator":null,"country":"US","launch_date":"2025-12-02","launch_site_code":"AFWTR","launch_vehicle":null,"mission":null,"orbit_class":"UNKNOWN","rcs_meters":null,"size_class":null,"mass_kg":null,"dimensions":null,"purposes":["comms"],"wikipedia_slug":null,"has_3d_model":false,"image_url":null,"decayed_at":null,"tle_current":{"epoch":"2026-05-25T03:06:48.149280Z","epoch_age_seconds":63285,"freshness":"FRESH","line1":"1 66840U 25280V   26145.12972395  .00003154  00000+0  27194-3 0  9995","line2":"2 66840  70.0006 141.8153 0003227 267.9082  92.1707 14.98336811 27526","mean_motion":14.98336811,"eccentricity":0.0003227,"inclination_deg":70.0006,"raan_deg":141.8153,"arg_perigee_deg":267.9082,"mean_anomaly_deg":92.1707,"bstar":0.00027194,"rev_number":2752,"period_min":96.106562251443,"perigee_km":569.79200811947,"apogee_km":574.27764901762,"semimajor_km":6950.1718285685,"source":"CELESTRAK","updated_at":"2026-05-25T13:38:21.337786Z"}}}